Wind_Speed
23 23 24 26 27 27 25 24 23 22 21 20 18 17 16 15 14 13 12 11 10 9 7 6 6 5 4 3 3 4 4 5 6 7 7 8 9 9 10 10 10 10 10 9 8 7 6 6 5 5 4 4 4 4 4 4 5 5 5 5 6 6 6 7 8 8 9 10 10 11 11 12 13 13 14 14 15 15 16 17 17 18 18 18 18
24 23 23 24 26 28 28 27 26 25 24 23 21 20 19 18 17 15 14 13 12 11 9 8 8 6 6 6 5 5 5 5 5 6 7 7 8 9 9 10 10 10 9 8 8 7 6 5 5 4 4 3 3 3 3 4 4 5 6 6 6 7 7 7 8 9 9 10 10 11 12 13 13 14 14 15 15 16 17 17 18 19 19 18 18
24 24 24 24 25 27 28 29 29 28 26 25 23 22 21 20 19 17 16 15 13 12 11 11 10 9 8 8 7 7 7 7 7 7 7 8 9 9 10 10 10 10 9 8 7 6 6 5 5 4 4 3 3 3 3 3 4 6 7 7 8 8 8 9 9 10 10 11 11 12 12 13 14 14 15 15 15 16 17 18 19 19 19 19 18
26 26 26 26 25 26 27 28 28 28 27 26 25 24 23 22 21 19 18 17 15 14 13 12 12 11 10 10 10 10 9 9 9 8 8 9 10 10 11 11 11 10 10 9 7 6 5 5 4 4 4 4 4 4 4 4 5 6 7 8 9 9 10 11 11 12 12 12 12 13 13 14 14 15 16 15 15 15 17 18 19 19 18 18 17
27 26 27 27 26 26 25 25 26 27 26 26 25 25 24 23 22 21 20 19 18 16 15 14 13 13 13 13 13 12 12 11 11 10 10 10 11 11 12 12 11 11 10 10 9 7 6 5 5 4 4 4 4 5 5 5 6 7 7 7 8 9 10 11 12 13 13 13 14 14 15 15 15 15 15 15 14 16 17 17 18 18 17 16 16
26 26 28 28 29 28 26 26 25 24 24 25 25 25 25 25 24 23 22 21 20 19 17 17 16 15 15 15 15 14 14 13 13 12 12 12 12 12 13 13 12 12 11 11 10 9 8 7 6 5 5 5 5 5 6 7 7 8 8 8 8 10 10 11 11 13 13 13 14 14 14 15 15 15 15 14 14 15 16 17 17 16 15 15 16
33 35 34 32 32 31 28 27 25 23 23 23 24 25 25 25 24 24 24 23 22 21 20 19 18 18 18 18 17 16 16 15 14 14 14 14 14 14 14 14 13 13 12 11 11 11 10 9 7 7 6 6 7 7 8 8 9 10 10 10 10 11 11 12 12 12 13 13 13 12 12 13 13 14 14 13 14 15 16 16 16 14 13 15 16
38 38 39 36 33 31 29 28 26 24 23 23 24 25 25 25 25 25 26 25 24 23 22 21 21 21 20 20 19 18 17 16 16 15 15 15 15 15 15 15 14 14 13 12 12 12 12 11 10 9 8 9 9 9 10 10 11 11 12 12 12 13 13 13 13 13 13 13 12 12 11 12 12 13 13 13 15 16 15 15 15 14 13 14 16
40 36 37 35 33 33 32 31 29 26 24 24 25 26 25 25 25 25 27 27 26 25 24 24 23 23 23 22 21 20 19 18 17 16 16 16 16 15 15 15 15 14 14 14 13 13 14 13 12 11 11 11 11 11 11 12 13 13 13 14 14 14 15 15 14 14 14 14 14 14 13 13 14 15 15 15 15 16 15 13 13 14 14 15 17
45 40 36 31 31 36 35 32 31 29 27 26 25 26 26 26 25 26 27 27 27 27 26 26 26 25 25 24 23 21 20 18 18 17 17 17 16 15 15 15 15 15 14 14 14 15 15 15 14 13 13 13 13 12 12 13 13 13 13 14 14 15 15 15 15 15 15 15 15 15 14 14 15 16 16 16 15 15 14 13 13 14 16 17 18
48 43 37 29 29 35 37 34 33 31 30 28 26 26 27 27 27 27 27 28 28 28 27 27 27 26 26 25 24 22 20 18 17 18 17 16 16 15 15 15 15 15 15 15 15 16 16 15 15 14 14 13 13 12 12 13 13 12 12 12 13 14 13 13 13 13 14 14 15 15 14 14 14 14 14 14 13 13 13 13 14 15 17 17 18
47 42 37 32 29 31 36 37 35 33 32 30 28 26 26 27 28 29 29 29 29 28 28 28 27 26 26 25 24 22 19 18 17 18 17 16 15 15 15 15 15 15 15 15 15 15 15 15 14 14 13 13 13 12 11 12 12 11 11 11 12 12 11 10 10 10 11 11 12 13 12 12 12 12 11 11 12 12 13 13 14 15 17 17 18
48 41 38 36 32 30 33 37 38 36 33 31 29 27 26 26 28 29 29 29 28 28 28 28 26 25 24 24 23 21 19 18 17 17 16 15 15 15 15 15 15 15 14 14 14 14 14 14 14 13 12 12 12 12 11 11 11 11 10 10 10 11 10 9 8 8 8 8 9 9 9 9 9 9 9 10 11 12 13 13 14 15 16 16 17
49 45 42 40 37 36 35 37 39 40 36 32 30 29 26 24 24 25 26 26 26 27 26 25 23 22 22 22 21 20 19 18 17 16 16 15 15 15 16 15 15 14 13 12 13 13 13 13 12 11 11 10 10 11 11 11 11 10 10 10 10 10 9 8 7 7 6 6 7 7 6 6 6 7 8 9 10 11 12 13 14 14 15 15 15
50 50 47 43 40 39 38 37 39 40 38 35 33 30 26 23 20 19 20 20 21 22 21 20 20 21 21 21 20 20 19 17 16 16 17 16 15 15 15 15 13 12 11 11 11 11 12 12 11 10 10 10 9 10 11 11 10 9 9 10 10 9 9 8 7 6 5 4 5 5 4 5 5 6 8 8 9 10 11 12 12 13 13 13 14
51 52 50 46 45 44 41 40 41 39 38 37 35 30 25 20 15 13 13 14 15 15 15 16 17 18 18 18 19 19 18 16 15 16 17 16 16 15 14 12 11 10 10 11 11 11 11 11 10 10 10 10 10 10 11 10 10 9 9 9 9 9 8 8 6 5 4 5 5 4 4 4 4 5 6 7 8 9 9 10 11 11 11 12 12
55 54 52 51 50 48 44 42 43 41 39 39 36 33 29 26 22 20 19 18 15 14 15 15 15 16 16 16 17 17 15 14 14 16 17 17 16 14 12 10 10 10 10 10 11 12 12 11 11 11 11 11 11 11 11 11 10 9 9 9 9 7 7 6 5 5 5 5 5 6 6 5 4 4 4 5 7 7 8 9 10 10 10 11 11
58 57 56 54 50 47 43 40 41 44 44 42 39 38 38 37 36 35 34 34 31 27 24 20 18 18 18 16 16 14 14 14 14 15 17 17 15 13 11 10 10 10 10 10 12 13 13 13 12 12 12 12 13 13 13 12 11 10 10 10 9 7 6 5 4 4 4 4 6 7 7 7 5 4 3 3 4 5 6 7 8 9 10 10 10
60 60 60 59 55 50 45 40 40 44 49 47 43 42 42 40 39 37 37 38 38 36 33 30 28 26 23 20 19 17 16 15 15 15 16 17 16 14 12 11 11 10 10 11 13 14 15 14 13 13 12 13 15 15 14 14 12 11 11 11 10 9 8 5 3 3 3 4 6 8 9 9 8 7 5 3 1 2 4 5 6 7 9 9 10
62 62 62 63 62 59 54 49 46 48 51 51 47 45 43 40 38 37 36 36 36 34 33 32 31 29 26 26 26 25 21 18 19 20 19 19 18 16 14 13 11 11 11 13 14 15 15 14 14 13 13 15 16 17 16 15 14 13 13 12 11 12 11 8 5 4 4 6 7 9 10 11 10 9 8 6 4 2 1 3 4 5 6 7 8
65 64 63 63 65 66 64 61 57 55 54 52 50 48 44 39 39 40 41 41 40 38 37 35 34 32 29 28 30 29 27 26 26 26 24 22 20 19 17 15 12 11 12 14 15 15 15 14 14 15 15 16 17 18 18 16 15 15 14 12 12 14 14 12 9 7 6 7 9 10 12 14 14 13 11 9 8 6 3 1 2 3 4 6 7
68 67 65 64 65 66 67 66 64 61 58 55 53 51 48 44 44 45 45 43 42 41 40 39 37 35 33 31 31 31 30 30 30 29 27 24 23 21 20 17 14 12 12 14 14 15 15 15 15 16 17 17 19 20 20 18 17 16 13 11 13 15 16 15 13 11 10 9 11 12 14 16 17 17 16 14 11 9 7 6 5 4 3 4 6
70 69 68 67 66 66 66 67 66 66 63 59 56 56 53 50 49 47 46 45 44 42 43 43 41 40 38 36 35 35 34 33 32 31 29 27 25 24 22 20 17 14 14 14 15 15 15 16 16 17 18 19 20 23 23 21 18 14 11 11 13 16 17 17 16 15 14 13 12 14 15 17 18 20 20 19 17 14 11 9 9 9 8 7 7
73 72 71 69 68 67 66 67 67 67 67 64 61 61 58 54 52 49 46 46 47 47 46 46 46 44 43 41 40 40 39 38 37 37 35 31 29 27 25 23 21 19 17 16 16 17 17 18 18 19 19 20 22 24 26 23 18 13 11 12 15 16 17 18 18 18 18 16 16 16 17 18 20 21 23 23 22 20 18 15 13 13 12 12 11
76 75 74 72 71 69 68 67 67 67 68 67 65 64 62 59 56 52 48 46 49 51 50 48 48 47 46 46 45 45 44 44 43 41 39 35 33 32 29 28 26 24 21 19 17 18 19 20 21 22 22 23 25 27 27 24 20 17 16 17 17 18 18 19 19 20 20 19 19 19 19 19 21 23 24 25 25 24 23 21 20 18 17 16 17
79 78 77 75 74 72 70 69 68 68 69 69 68 67 65 63 60 57 54 50 50 52 52 50 49 50 49 48 49 48 48 47 46 43 41 39 38 37 34 31 29 26 24 21 18 18 21 23 23 25 26 27 28 29 28 26 24 22 21 20 19 19 19 20 20 21 22 21 21 21 21 21 22 23 24 25 26 25 25 25 24 22 20 19 19
83 81 80 78 77 75 73 72 70 69 69 70 71 70 68 66 63 62 61 56 52 52 54 53 52 52 52 50 50 51 50 48 46 45 42 41 42 41 38 35 31 29 29 27 23 21 24 25 26 28 30 30 30 29 29 29 28 26 24 22 21 21 20 21 22 22 22 22 22 23 23 23 24 24 23 24 25 26 25 25 25 24 23 22 22
86 84 83 82 80 78 76 74 73 72 71 71 72 73 72 70 68 66 65 62 56 54 56 57 56 55 55 54 53 53 52 49 47 46 46 45 44 43 41 38 35 33 35 35 32 30 29 29 29 31 32 31 30 29 29 30 29 28 26 24 23 23 22 22 23 22 22 21 22 23 25 25 25 24 24 24 25 26 26 26 27 26 25 24 25
89 88 86 85 83 81 79 78 76 75 73 72 73 75 75 74 72 69 68 67 63 58 57 59 61 60 58 58 57 55 53 51 49 48 48 48 47 46 44 43 41 40 40 39 38 38 38 35 33 32 30 30 31 31 31 30 29 28 27 26 26 25 24 24 24 23 22 21 21 22 24 25 25 24 25 26 28 28 28 28 29 29 28 27 27
92 91 89 88 86 84 82 81 79 78 76 75 74 76 77 78 76 73 71 72 70 65 59 57 61 64 63 61 60 58 55 54 53 51 50 50 49 48 46 45 45 44 41 40 39 39 37 34 31 28 27 29 32 34 34 32 30 28 27 27 27 27 26 26 26 25 24 23 22 22 23 23 23 23 23 25 27 29 29 29 30 30 30 29 29
95 94 92 90 89 88 86 85 83 81 80 78 77 77 78 80 80 78 75 75 76 73 64 55 56 62 65 64 63 61 60 58 57 56 54 51 51 51 49 47 47 46 43 41 41 41 37 33 29 25 25 30 37 40 39 36 32 29 27 27 27 28 28 28 28 28 27 26 25 25 25 25 24 23 23 23 24 25 26 26 28 30 31 31 32
97 96 95 93 92 91 90 88 87 85 83 82 81 79 80 81 82 82 80 78 78 79 75 64 56 57 63 66 66 64 64 63 61 59 57 55 54 53 52 51 51 49 46 44 46 45 39 33 30 28 27 31 38 44 45 42 37 31 28 27 28 28 29 29 30 30 30 30 29 29 30 29 29 28 27 27 26 24 24 24 25 28 29 30 30
100 99 97 96 95 94 93 92 90 89 87 85 84 83 82 82 84 84 84 83 81 81 81 77 66 58 59 65 68 68 67 66 64 62 59 59 58 56 54 53 53 51 49 49 49 46 38 33 31 30 29 33 41 47 48 46 40 34 30 29 29 29 29 30 31 32 33 33 34 33 33 33 32 31 31 31 30 28 26 23 23 24 25 26 26
103 102 100 99 98 97 96 95 93 92 91 89 88 86 84 84 85 86 87 87 86 84 83 83 79 69 61 61 67 72 71 69 68 66 63 60 60 60 58 57 55 53 51 52 52 48 42 38 36 35 35 39 47 51 50 46 41 36 33 32 31 30 30 31 32 33 35 35 36 35 35 34 34 33 33 33 33 31 27 24 23 23 24 24 24
107 105 103 102 100 99 98 98 96 95 94 93 91 89 88 86 86 87 88 90 90 89 87 86 85 82 73 64 63 70 74 72 70 68 66 64 62 61 61 60 57 54 53 53 54 51 48 45 44 43 44 48 51 52 50 46 41 38 36 35 33 32 31 31 32 33 35 36 36 37 36 35 35 34 34 35 35 33 30 28 27 26 25 24 26
111 109 106 104 103 102 101 100 99 98 97 97 95 93 91 90 88 88 89 91 92 92 91 89 88 87 84 75 67 66 70 73 72 70 68 67 65 63 62 62 60 56 54 55 56 54 52 50 50 50 51 53 53 52 50 46 43 41 39 37 36 35 35 34 34 34 35 36 37 37 37 36 35 35 36 37 37 35 34 33 32 30 29 28 30
116 114 110 107 105 104 103 102 101 101 100 99 98 97 95 93 92 90 90 91 93 94 94 94 92 90 88 85 78 72 71 73 74 73 71 70 69 66 65 65 64 60 59 60 61 57 53 52 54 54 54 54 54 53 51 48 46 44 41 40 39 38 38 38 38 37 36 36 37 38 38 37 37 37 38 39 39 38 38 39 38 37 36 36 35
120 118 115 111 109 107 106 105 104 103 102 102 101 100 98 96 95 94 92 92 93 95 96 96 96 95 91 88 86 82 78 76 76 75 74 74 73 71 69 68 67 65 65 67 67 61 55 54 55 55 55 54 55 54 53 51 50 48 46 44 43 42 41 41 41 40 40 39 39 39 38 38 39 39 39 39 40 40 40 41 42 43 44 43 41
124 122 119 116 113 110 109 107 106 105 105 105 104 103 102 100 98 97 96 94 94 95 97 98 99 98 95 91 89 87 85 82 80 79 78 77 76 75 74 73 71 69 68 70 71 67 63 60 59 57 57 57 57 57 55 54 53 52 51 50 49 48 47 46 46 45 44 44 43 41 39 38 39 40 40 39 40 41 40 40 42 45 45 44 42
128 126 123 121 118 115 112 110 109 108 108 107 106 105 104 103 102 100 99 97 96 96 97 98 100 100 98 95 92 91 89 87 85 83 81 80 79 78 78 78 77 75 73 73 73 72 69 66 64 62 60 59 60 59 58 57 57 56 55 55 54 54 54 53 53 53 51 48 46 43 41 40 40 40 40 40 41 42 41 40 41 42 41 40 40
131 130 127 125 122 120 117 114 113 112 110 109 109 108 107 106 105 104 102 101 99 98 97 98 100 101 100 98 95 94 93 91 88 87 85 83 82 82 82 82 82 81 79 77 76 73 70 68 67 66 64 63 62 62 62 61 60 59 58 58 59 59 59 58 59 59 57 54 50 46 44 43 43 43 42 42 42 42 41 39 39 39 39 40 40
133 133 131 129 126 124 122 119 117 115 113 112 111 110 110 109 108 107 106 104 103 101 100 99 100 101 102 100 98 98 97 95 92 90 88 87 87 87 86 85 85 85 83 80 77 74 71 69 69 69 69 67 66 65 64 63 61 60 60 60 61 63 64 63 63 62 61 58 53 49 48 48 49 48 48 47 46 45 44 41 40 40 42 43 44
135 135 134 132 130 128 126 124 121 119 117 115 113 112 112 112 111 110 109 108 106 105 103 101 101 101 102 102 101 100 100 99 97 94 92 91 91 90 90 89 88 87 85 82 79 76 74 72 71 71 72 72 70 69 67 65 64 64 63 62 62 63 64 65 65 65 63 60 55 52 52 52 52 52 53 53 52 50 48 46 45 45 45 47 47
136 136 135 135 133 131 129 127 125 123 120 118 116 115 114 114 114 113 112 111 110 108 106 105 103 102 103 103 103 102 102 102 101 99 97 95 94 94 93 93 91 89 87 83 80 79 77 76 74 73 73 73 73 73 71 69 69 69 69 68 67 66 67 67 67 65 64 62 59 57 56 56 54 54 55 56 56 55 52 49 49 49 50 51 51
137 137 136 136 136 135 133 130 128 126 124 121 119 117 116 115 115 115 114 113 112 111 110 108 107 105 104 104 104 104 103 103 103 102 101 99 98 97 96 95 94 92 90 86 83 81 80 80 79 77 76 76 76 75 75 74 74 74 74 73 73 72 72 71 70 68 66 65 63 62 61 60 58 57 56 57 60 59 56 53 53 53 53 54 54
136 137 137 137 137 137 136 134 131 129 127 125 122 120 119 118 117 117 116 116 115 114 113 112 110 109 107 106 106 106 105 104 104 104 104 103 102 101 100 98 96 95 93 90 87 85 84 84 83 82 81 80 79 78 77 77 77 77 77 77 77 76 76 75 74 73 71 69 67 65 64 63 63 62 62 62 63 63 61 59 58 58 58 58 58
131 135 137 137 137 137 137 136 135 132 130 128 126 124 122 120 119 118 118 118 117 116 116 115 114 112 111 109 108 107 107 106 105 105 105 106 106 105 104 102 99 98 96 94 92 90 89 88 87 85 83 82 81 80 80 80 80 80 80 79 79 78 78 78 78 77 75 73 71 68 67 65 65 66 66 66 66 66 66 65 64 64 63 63 63
123 129 133 136 137 138 138 138 137 135 133 131 129 127 125 123 121 120 120 119 119 119 118 117 116 115 114 113 111 109 108 108 107 106 106 107 108 108 107 106 104 102 100 98 97 95 93 92 90 88 86 84 83 82 81 81 82 82 82 82 81 80 79 79 79 78 78 77 76 73 71 69 68 68 68 68 68 68 69 69 69 68 67 67 67
114 120 127 132 135 137 138 138 138 137 135 134 132 130 128 126 124 123 122 121 120 120 120 119 118 118 117 116 114 113 111 110 109 108 107 108 109 109 109 109 108 106 105 103 101 100 99 96 94 92 90 89 87 86 85 84 84 84 84 85 84 83 81 80 79 79 79 79 79 78 77 74 72 71 71 71 71 71 71 72 72 72 71 72 73
108 112 118 124 130 134 136 137 138 137 137 135 134 133 131 129 127 125 124 123 122 122 122 121 121 120 120 118 117 116 114 113 111 110 109 109 110 110 110 111 111 110 109 108 106 105 104 102 99 97 95 94 92 91 90 88 87 87 87 87 87 86 85 84 83 82 81 80 80 80 80 79 77 76 76 75 75 75 75 75 76 76 76 76 77
103 107 110 115 121 127 132 135 137 138 137 136 135 134 133 132 130 128 127 125 125 124 123 122 122 122 122 121 120 119 118 116 115 113 112 111 111 111 112 112 113 113 112 111 110 109 108 107 105 103 100 98 97 95 94 93 92 91 90 90 90 89 89 88 87 86 86 84 83 82 81 80 80 80 80 79 79 78 77 78 78 79 78 79 78
Wind_Direction
234 234 234 234 236 239 244 249 255 260 264 267 269 271 272 269 263 253 247 245 243 244 247 252 261 269 280 295 313 331 349 0 6 9 12 15 17 19 21 22 23 23 26 29 31 32 31 32 34 35 37 35 33 30 22 20 13 2 359 359 357 357 356 352 350 351 350 348 352 354 351 353 356 357 1 4 4 5 3 2 3 4 4 4 3
235 237 239 238 237 237 239 243 248 253 258 262 265 267 269 270 266 257 250 247 247 248 249 251 256 264 273 281 290 300 314 328 338 345 351 355 358 1 3 6 9 11 13 17 20 22 20 18 16 16 18 13 11 7 360 9 359 337 339 344 342 341 341 340 338 338 338 338 341 341 340 343 346 347 352 357 0 3 2 0 360 0 0 2 2
238 238 240 241 240 237 237 239 241 245 249 253 257 261 264 267 267 260 253 249 249 251 252 253 256 260 267 273 280 288 295 305 314 322 331 336 339 343 346 350 353 356 358 0 5 9 8 7 2 357 354 349 346 339 338 343 331 320 325 328 327 328 329 328 327 326 326 329 332 332 332 336 338 338 343 350 356 1 1 358 357 358 359 360 0
239 239 237 237 239 239 237 237 237 239 242 244 247 251 256 261 263 260 255 251 251 252 253 255 256 259 263 268 274 281 287 294 299 306 315 320 324 329 332 336 340 342 342 342 344 347 347 349 348 340 335 328 322 318 316 319 317 316 318 318 319 322 322 321 320 319 321 324 326 328 329 331 333 334 339 346 353 357 357 356 355 357 359 360 360
240 240 239 237 238 239 238 236 235 234 234 236 239 243 247 251 255 255 253 251 251 251 253 254 255 257 260 263 269 275 280 285 291 298 304 309 314 318 322 325 328 330 330 328 325 324 324 326 327 324 319 313 307 304 301 303 308 310 310 310 313 315 315 315 316 316 318 321 324 328 330 331 332 334 339 343 347 352 354 353 355 359 1 2 3
241 240 242 242 242 241 240 239 237 233 230 229 230 234 238 242 245 248 248 248 249 250 252 253 254 255 257 260 264 268 274 279 285 292 297 301 306 310 313 315 317 320 320 317 314 311 309 309 309 307 304 299 298 294 293 298 302 305 308 309 310 310 310 312 314 316 318 321 324 328 330 332 332 333 336 338 343 350 352 352 355 359 2 4 6
234 237 240 242 244 245 244 244 243 238 230 226 225 226 229 233 237 239 240 241 243 246 250 252 253 255 257 260 263 267 272 277 282 287 292 296 301 304 306 307 310 310 308 306 305 302 300 298 295 294 293 290 290 289 288 292 296 301 306 309 309 310 312 314 316 318 321 324 326 327 329 331 333 334 334 334 338 343 348 351 355 358 0 3 2
227 233 235 236 241 244 246 247 248 243 234 226 223 223 223 226 230 233 235 236 237 240 244 248 251 254 257 260 263 266 269 273 278 282 286 290 294 297 299 301 302 302 301 299 298 295 293 292 290 288 286 285 284 283 285 288 291 295 299 301 303 306 309 312 312 313 316 318 319 320 322 327 331 333 332 329 329 335 342 350 353 354 356 356 353
227 230 233 234 237 240 242 246 249 247 240 231 225 223 222 223 227 231 233 234 235 236 238 242 245 249 254 257 259 262 265 269 272 276 280 284 287 289 292 294 295 294 294 294 294 292 291 291 291 289 286 285 285 285 286 288 290 293 294 294 296 298 300 302 303 305 305 306 307 309 311 318 323 324 325 323 324 329 337 344 346 346 348 348 347
227 228 230 231 236 239 241 244 247 247 243 237 231 226 222 220 222 228 232 234 235 236 237 239 241 245 249 253 256 259 262 265 269 272 275 278 281 282 285 286 286 286 286 288 288 287 288 290 291 292 289 287 287 289 290 291 293 295 296 296 296 296 296 296 298 300 301 301 303 303 305 311 315 316 317 317 319 326 333 337 337 338 340 343 346
225 226 226 224 232 241 244 243 244 247 246 242 237 231 226 222 220 223 227 231 234 235 237 239 241 244 248 252 255 257 259 261 264 268 271 272 274 276 278 279 278 278 279 279 279 280 282 284 286 288 289 288 289 290 291 292 295 298 300 302 301 302 302 302 300 299 300 302 303 305 309 312 313 313 315 316 320 328 335 337 337 338 341 345 350
222 223 223 223 228 240 247 247 245 246 248 248 245 240 233 227 223 222 223 226 229 232 235 238 240 243 246 250 253 256 257 258 260 263 265 266 267 269 270 271 272 273 273 274 276 277 278 279 280 281 283 285 288 292 293 294 299 306 309 309 311 314 317 315 312 309 308 308 307 310 314 317 319 322 325 327 330 337 343 344 344 345 347 351 357
218 217 218 220 222 228 240 248 248 246 247 250 252 249 242 235 230 227 225 225 227 230 233 235 237 240 243 247 251 253 254 254 255 257 259 258 259 260 263 266 267 269 271 272 274 276 277 278 279 279 280 283 287 291 295 298 305 314 321 324 324 327 333 333 328 326 323 317 314 317 321 325 331 339 345 347 349 352 354 354 355 356 358 1 5
218 217 215 216 218 220 227 239 247 247 246 246 249 250 250 246 241 237 234 231 230 232 234 235 236 237 240 243 246 249 250 250 249 250 252 252 253 254 257 261 264 267 270 272 273 275 277 278 280 281 283 285 288 290 294 299 308 318 329 335 337 338 345 349 345 338 329 316 312 315 324 336 347 355 2 7 11 11 7 4 5 7 8 10 13
217 217 216 214 214 218 220 227 237 243 244 244 246 248 251 254 254 251 246 243 242 241 240 238 237 237 238 240 242 244 246 246 244 245 247 249 251 252 255 258 264 269 271 272 274 275 276 279 282 285 285 285 287 289 293 298 305 316 326 334 342 350 357 1 355 343 322 301 299 304 319 341 356 1 7 16 23 21 16 14 13 12 14 18 20
218 218 218 215 213 215 217 221 226 231 235 239 242 245 247 252 258 259 255 254 257 258 256 251 247 244 242 241 242 243 244 244 242 242 245 247 249 251 254 259 263 265 266 268 270 271 274 277 279 278 279 285 288 288 291 294 300 307 314 322 336 352 5 7 359 343 321 299 293 291 299 324 347 358 6 17 22 22 23 22 18 17 18 23 25
221 220 219 219 217 216 219 222 223 224 226 229 231 233 233 232 230 230 230 230 237 248 254 258 261 261 257 251 247 246 245 244 242 239 240 243 245 248 251 254 256 255 256 259 263 265 269 270 271 272 275 282 287 287 287 290 292 296 301 307 321 341 360 6 358 344 327 306 292 284 281 289 311 333 356 14 17 21 27 24 20 21 23 24 28
222 220 219 220 219 216 219 224 225 224 224 223 224 225 225 223 220 219 218 217 217 217 219 223 232 242 248 251 253 253 249 243 240 238 239 242 243 244 245 245 246 247 249 254 257 261 263 265 266 270 274 279 282 285 286 286 286 287 290 294 304 317 332 347 349 341 325 298 281 273 269 267 268 280 314 360 15 24 33 28 23 25 26 25 27
222 221 220 220 219 216 217 224 228 226 222 220 221 224 225 225 223 220 220 219 216 212 208 208 213 218 221 224 231 238 243 246 247 243 240 241 243 243 242 240 240 242 245 249 253 257 261 264 268 271 274 276 278 281 283 283 282 281 282 286 294 299 303 309 316 316 307 286 271 262 259 257 254 255 264 280 336 27 39 34 24 26 28 27 25
222 222 221 221 221 218 217 221 225 224 220 218 219 222 225 226 225 224 225 226 223 218 212 211 214 217 217 216 217 218 220 229 242 246 241 238 240 242 242 241 240 240 243 246 251 257 263 267 270 271 270 270 274 278 280 280 279 276 275 279 286 288 290 290 287 288 286 277 268 259 254 253 252 251 253 254 252 255 46 45 35 29 31 30 26
222 222 221 222 223 222 221 222 225 223 219 217 219 221 223 224 225 227 228 227 226 223 217 213 213 217 219 221 222 219 211 210 220 231 233 232 233 236 240 242 241 240 244 248 253 259 265 268 267 267 267 268 272 275 276 275 273 270 269 271 275 279 282 283 281 277 274 271 268 261 254 251 250 251 253 256 257 254 252 283 15 21 24 27 25
223 222 221 221 223 224 224 224 225 223 220 218 218 220 221 222 224 226 227 226 223 221 218 215 213 212 212 217 224 226 220 216 218 223 227 228 227 228 231 237 239 239 243 250 256 260 264 265 265 265 266 269 271 272 272 270 266 264 262 262 267 273 277 280 280 278 271 265 264 264 260 254 252 252 254 258 262 266 266 271 283 301 327 352 3
225 224 222 221 222 224 224 225 225 223 221 219 217 218 219 221 222 224 226 226 224 221 218 216 215 213 209 211 219 224 223 224 224 224 226 227 226 224 224 228 233 236 239 247 254 258 260 262 264 265 267 268 271 272 272 270 266 263 259 258 264 270 274 276 276 275 272 266 263 263 263 261 257 256 256 259 263 269 274 277 282 287 292 302 320
226 225 224 222 222 222 223 224 225 224 223 221 218 217 219 220 221 222 224 227 228 225 221 219 219 217 212 210 216 219 220 221 222 223 225 226 226 224 220 220 224 228 232 238 246 252 256 258 260 263 266 268 270 272 273 274 273 273 270 267 266 267 268 269 270 271 271 269 265 262 262 262 260 259 259 260 263 269 274 277 281 286 290 290 292
226 226 226 224 223 222 222 223 224 224 223 222 220 218 219 220 220 220 223 229 231 229 225 222 222 221 217 214 216 218 218 218 219 222 224 225 225 227 224 220 218 219 224 232 240 248 254 256 258 260 262 264 266 268 272 275 278 278 277 275 271 267 264 264 265 267 267 266 265 263 261 261 261 260 260 261 263 268 273 277 280 285 290 291 289
226 226 226 225 224 223 222 222 222 223 223 222 221 220 219 221 221 220 222 227 229 228 226 225 224 224 222 220 220 220 220 220 220 221 223 224 225 228 229 227 221 217 220 227 234 244 252 255 258 260 260 260 261 265 269 273 274 274 274 275 273 270 268 266 264 263 263 262 262 262 261 261 261 261 261 262 263 266 270 275 280 284 288 290 291
227 226 226 226 225 224 224 222 221 221 222 222 221 220 220 221 221 221 222 223 224 224 225 224 224 225 224 222 223 224 224 224 224 224 225 226 227 226 228 231 228 220 218 218 219 231 244 250 252 254 256 258 260 263 266 269 270 270 270 271 272 272 272 271 268 265 263 262 262 261 261 261 263 265 266 265 265 267 270 275 280 285 288 289 291
228 227 226 226 225 225 224 224 222 221 220 220 221 221 220 221 221 221 221 221 222 223 224 223 224 225 225 224 225 227 227 227 228 227 227 229 231 229 229 230 230 227 223 217 214 218 227 236 243 246 250 255 257 259 262 265 267 269 270 270 270 270 271 271 271 268 267 265 263 261 261 263 265 267 270 271 270 271 273 277 282 286 290 292 293
229 228 227 226 225 225 225 225 224 222 220 219 219 220 220 221 221 221 221 221 223 224 224 225 226 226 226 226 226 226 229 231 231 229 228 230 234 234 232 231 232 232 229 225 222 220 220 223 232 241 248 253 256 258 259 261 263 266 269 271 270 270 270 270 271 271 272 270 267 264 263 265 266 268 270 272 274 276 276 278 281 286 289 291 292
229 228 227 227 226 225 225 225 225 224 222 220 219 219 220 220 221 221 221 222 224 225 226 228 228 226 225 226 226 226 228 232 233 233 232 232 233 233 233 232 231 231 232 233 232 230 225 223 228 237 247 255 259 260 259 258 259 261 264 267 269 270 270 270 271 272 274 273 272 270 269 270 271 272 271 270 271 274 275 277 279 282 285 287 288
229 229 228 227 226 226 225 225 225 224 224 222 220 219 219 219 220 221 221 223 225 226 226 228 229 228 226 226 227 227 228 231 233 234 235 235 233 233 234 231 227 228 234 238 237 233 227 225 229 236 245 255 262 263 261 257 256 255 256 259 263 266 268 269 269 271 273 274 275 276 277 277 279 281 280 276 272 270 271 272 274 276 278 281 284
229 229 228 227 226 226 226 225 224 224 224 223 222 220 219 219 219 220 220 222 225 227 228 228 229 229 228 227 227 228 229 230 232 233 235 237 238 237 235 229 226 229 237 239 234 227 221 222 229 235 239 246 254 259 258 256 254 252 250 252 255 258 261 264 265 267 269 270 272 275 277 278 280 282 282 280 276 273 270 269 270 271 274 278 281
230 229 228 228 227 226 225 225 225 224 224 224 223 222 220 219 219 219 220 221 223 227 229 229 228 228 228 228 229 228 228 229 231 232 234 237 239 238 236 231 229 233 237 236 229 224 220 223 229 232 234 239 244 248 250 251 250 248 248 248 250 253 256 259 261 262 263 265 267 270 273 275 278 280 280 278 277 274 272 271 270 271 276 279 283
230 230 229 228 227 226 226 225 225 224 224 224 224 223 222 221 219 219 219 220 222 224 228 229 229 228 227 228 229 229 228 229 231 233 234 236 237 237 236 235 233 235 236 232 226 225 228 234 235 232 229 232 235 238 241 244 245 245 246 248 250 252 255 257 259 260 261 263 265 268 271 274 277 278 279 279 278 275 272 270 269 271 275 280 286
231 230 229 228 228 227 226 225 225 224 224 224 224 224 224 223 221 220 219 220 221 223 225 228 230 229 228 228 229 229 228 229 230 232 233 235 236 236 236 235 234 234 233 228 225 228 233 239 241 237 229 226 228 231 234 238 241 244 246 248 250 253 255 257 260 262 263 265 266 268 270 271 273 275 277 278 278 273 268 267 269 272 274 280 286
232 231 230 229 228 227 227 226 225 225 224 224 224 224 224 224 223 222 221 220 221 222 224 226 228 230 229 229 230 230 229 229 231 231 232 233 234 236 236 234 233 232 230 227 227 230 235 243 248 244 234 228 227 229 231 234 238 242 245 248 250 253 255 258 260 261 263 265 265 266 266 266 267 270 274 276 277 273 266 264 269 273 278 284 290
232 232 231 229 228 228 227 227 226 225 225 224 224 224 224 224 224 224 222 221 221 222 223 225 227 229 229 229 231 231 231 231 232 232 231 231 232 233 234 233 232 232 231 229 229 232 240 250 252 246 237 231 230 230 231 233 236 240 243 246 249 251 254 256 258 260 261 262 263 263 265 265 266 268 271 274 277 275 269 266 268 274 280 286 292
232 232 232 230 229 228 228 227 227 226 226 225 225 224 224 224 225 225 224 223 223 223 223 224 226 228 228 228 230 232 232 232 233 232 231 230 231 232 232 232 232 234 234 233 232 236 246 253 251 244 239 236 234 234 235 236 238 240 243 246 249 252 253 255 257 258 259 260 261 262 265 267 269 269 271 273 275 276 273 270 270 274 280 286 291
232 232 232 231 230 228 227 227 227 226 226 226 225 225 224 224 225 225 225 224 224 224 224 224 226 227 228 227 228 230 232 233 233 233 233 232 231 232 233 233 233 235 235 233 234 240 249 252 249 245 242 240 238 238 239 240 242 244 246 248 252 254 255 257 258 258 259 259 260 261 264 267 270 272 272 271 272 274 276 276 276 277 279 284 289
233 232 231 231 231 230 228 227 227 226 226 226 226 225 225 224 224 225 225 225 225 225 225 225 226 227 228 227 228 229 230 231 232 233 233 233 233 234 234 234 235 236 236 236 238 244 249 251 248 247 245 244 242 242 242 243 245 247 249 252 255 258 259 260 260 261 260 260 260 261 262 264 267 270 270 269 269 271 275 278 279 279 280 282 285
233 233 232 231 231 230 229 228 227 226 226 226 225 225 225 225 224 224 225 226 226 225 225 226 227 228 228 228 228 228 229 230 231 232 233 234 235 235 235 236 236 237 238 239 241 245 249 249 247 245 245 246 246 245 245 245 247 249 251 255 258 260 262 263 262 263 263 262 261 262 263 264 265 266 266 265 266 269 272 276 279 280 281 283 285
232 232 233 232 231 230 230 229 228 227 226 225 225 225 225 225 225 224 224 225 226 226 226 226 227 228 229 228 228 228 229 229 230 231 233 234 235 235 236 236 237 237 238 240 243 245 246 247 246 245 245 246 247 247 248 248 249 251 253 255 257 260 262 263 264 264 265 265 265 265 265 266 267 268 268 267 267 268 270 274 278 280 283 285 287
231 231 232 232 232 231 230 229 229 228 226 225 225 225 225 225 225 225 225 224 225 226 227 227 227 228 229 229 229 229 229 229 230 230 232 233 235 236 236 237 238 238 239 241 243 244 245 246 247 246 246 247 247 248 249 249 249 250 250 251 253 256 258 260 262 264 265 266 266 265 264 264 266 268 270 270 270 270 271 273 276 279 283 286 288
230 230 231 231 232 231 230 229 229 228 227 226 225 225 225 225 225 225 225 225 225 225 226 227 227 228 229 230 230 230 229 230 230 231 231 233 234 235 236 237 238 239 239 240 242 244 245 246 247 247 248 248 248 249 249 249 249 250 250 250 251 253 255 257 260 262 263 264 263 261 261 261 262 265 268 270 270 270 271 272 274 279 283 286 288
229 229 230 230 231 231 231 230 229 228 228 227 225 225 224 224 225 225 225 225 225 225 225 227 227 228 228 229 230 231 230 230 231 231 232 233 233 234 236 237 237 238 239 239 240 242 244 246 247 248 248 249 250 250 250 250 250 251 252 252 253 254 256 257 259 260 261 262 261 261 260 261 261 262 264 266 268 268 269 270 272 276 279 282 284
229 229 229 229 230 230 231 230 229 228 228 227 226 225 224 224 224 225 225 226 226 225 225 226 227 228 228 229 230 231 231 231 231 232 233 233 234 234 235 236 237 238 238 239 239 240 242 244 246 248 249 250 250 251 251 252 252 253 253 254 254 255 257 257 258 259 260 261 261 261 260 260 260 261 261 263 265 266 267 268 270 272 275 278 280
229 229 229 229 229 229 230 230 230 229 228 228 227 226 225 224 224 224 225 225 226 226 226 226 226 227 228 229 230 231 231 232 232 233 233 234 235 235 235 236 236 237 238 239 239 240 241 242 244 247 248 250 251 251 252 253 254 254 255 255 255 256 256 257 258 259 260 260 260 260 260 260 260 261 262 262 264 265 266 267 268 270 273 276 278
229 229 229 229 229 229 229 230 230 230 229 228 227 227 226 225 224 224 224 225 225 226 226 226 226 226 227 229 230 230 231 232 232 233 234 235 236 236 237 237 237 237 238 239 239 240 241 242 243 244 246 248 250 251 252 253 254 254 255 255 256 256 256 257 258 258 259 259 259 259 259 259 259 260 262 263 263 264 265 266 268 270 271 274 276
230 229 229 229 229 229 229 229 230 230 229 228 227 227 227 226 225 224 224 224 225 225 226 227 227 227 227 228 229 230 231 232 232 233 234 235 236 237 237 238 238 238 239 239 240 241 241 242 242 243 245 246 248 249 251 252 253 254 255 255 256 256 256 257 258 258 259 259 259 259 259 259 259 260 261 262 263 264 265 267 268 270 271 272 275
231 230 230 229 229 229 229 229 229 230 230 229 228 227 227 226 226 225 224 224 224 225 226 226 227 227 227 228 228 229 231 232 232 233 233 234 236 237 238 239 239 240 240 240 241 242 242 242 242 243 244 245 247 248 250 252 253 254 255 256 256 257 257 257 257 258 259 260 260 260 260 260 260 260 261 262 263 264 265 267 268 269 270 272 273
231 231 231 230 229 229 229 229 229 229 230 230 229 228 227 227 226 226 225 224 224 225 225 226 227 227 228 228 228 229 230 231 232 233 233 234 235 236 238 239 240 241 241 242 242 243 243 243 243 243 244 245 246 248 249 251 252 254 255 256 257 257 258 258 259 259 259 260 260 261 261 261 261 261 261 262 263 264 266 267 268 269 270 271 272
Height
11009 11011 11013 11014 11016 11018 11019 11021 11021 11022 11023 11024 11025 11026 11026 11027 11028 11029 11029 11030 11030 11030 11030 11031 11031 11031 11031 11031 11030 11030 11030 11030 11030 11030 11029 11029 11028 11028 11027 11027 11026 11026 11025 11025 11024 11023 11023 11022 11021 11020 11019 11018 11018 11017 11016 11016 11015 11014 11013 11013 11012 11012 11011 11011 11010 11009 11008 11007 11007 11006 11005 11004 11003 11002 11001 11000 10999 10998 10997 10995 10994 10993 10992 10990 10989
11007 11009 11011 11012 11014 11015 11017 11018 11019 11020 11021 11023 11024 11025 11025 11026 11027 11028 11029 11029 11030 11030 11030 11030 11030 11031 11031 11031 11031 11030 11030 11030 11030 11030 11030 11030 11029 11029 11028 11028 11027 11027 11026 11025 11025 11024 11023 11023 11022 11021 11020 11019 11019 11018 11017 11016 11016 11014 11013 11013 11012 11011 11011 11010 11010 11009 11008 11007 11006 11006 11005 11004 11003 11001 11000 10999 10998 10997 10996 10995 10994 10992 10991 10990 10989
11006 11007 11009 11011 11012 11013 11014 11015 11017 11018 11019 11021 11022 11023 11024 11025 11026 11027 11028 11028 11029 11030 11030 11030 11030 11030 11030 11030 11030 11030 11030 11030 11030 11030 11030 11030 11030 11029 11028 11028 11028 11027 11027 11026 11025 11025 11024 11023 11022 11022 11021 11020 11019 11019 11018 11017 11016 11015 11014 11013 11012 11011 11011 11010 11009 11008 11008 11007 11006 11005 11004 11003 11002 11001 11000 10999 10998 10997 10996 10995 10993 10992 10991 10989 10988
11005 11007 11009 11009 11010 11011 11011 11012 11013 11015 11016 11018 11019 11021 11022 11023 11025 11026 11026 11027 11028 11029 11029 11030 11030 11030 11030 11030 11030 11030 11030 11030 11030 11030 11030 11030 11030 11029 11029 11028 11028 11027 11027 11026 11026 11025 11024 11023 11023 11022 11022 11021 11020 11019 11018 11018 11017 11016 11014 11013 11012 11012 11011 11010 11009 11008 11007 11006 11006 11004 11003 11002 11001 11000 10999 10999 10998 10997 10996 10994 10993 10992 10990 10989 10988
11005 11007 11007 11008 11008 11009 11010 11011 11011 11012 11013 11015 11017 11018 11020 11021 11023 11024 11025 11025 11026 11027 11028 11029 11029 11029 11029 11029 11029 11029 11029 11029 11030 11030 11030 11029 11029 11029 11028 11028 11028 11027 11027 11026 11026 11025 11024 11024 11023 11023 11022 11021 11021 11020 11019 11018 11017 11016 11015 11014 11013 11012 11011 11010 11009 11008 11007 11006 11005 11004 11003 11002 11001 11000 10999 10998 10997 10996 10995 10994 10993 10991 10990 10989 10988
11005 11006 11006 11007 11007 11008 11009 11009 11010 11010 11011 11012 11014 11015 11016 11018 11020 11021 11023 11024 11025 11025 11026 11027 11028 11028 11028 11028 11028 11028 11028 11028 11029 11029 11029 11029 11028 11028 11028 11027 11027 11026 11026 11026 11025 11025 11024 11024 11023 11023 11022 11021 11021 11020 11019 11019 11018 11016 11015 11014 11013 11012 11011 11010 11009 11008 11007 11006 11005 11004 11002 11001 11000 10999 10998 10997 10996 10996 10994 10993 10992 10991 10990 10989 10988
11002 11004 11006 11007 11007 11007 11008 11009 11010 11010 11010 11011 11011 11012 11013 11015 11017 11019 11020 11021 11022 11023 11024 11025 11026 11026 11027 11027 11027 11027 11027 11028 11028 11028 11028 11028 11027 11027 11027 11026 11026 11026 11025 11025 11025 11024 11024 11023 11023 11022 11022 11021 11021 11020 11019 11019 11018 11017 11015 11015 11013 11012 11011 11010 11009 11008 11007 11006 11004 11003 11002 11001 10999 10998 10997 10996 10995 10995 10994 10993 10992 10990 10989 10988 10987
10996 10999 11002 11005 11005 11006 11007 11009 11010 11010 11009 11009 11009 11010 11011 11012 11014 11016 11017 11018 11020 11021 11022 11023 11024 11024 11025 11025 11026 11026 11026 11026 11027 11027 11027 11026 11026 11026 11026 11025 11025 11024 11024 11024 11024 11023 11023 11023 11023 11022 11022 11021 11020 11020 11019 11018 11017 11016 11015 11014 11013 11012 11011 11010 11009 11008 11007 11006 11004 11003 11002 11000 10999 10998 10997 10995 10994 10994 10993 10992 10991 10990 10989 10988 10987
10991 10994 10996 11001 11004 11006 11007 11008 11009 11009 11008 11008 11007 11008 11009 11010 11012 11013 11014 11016 11017 11018 11019 11020 11021 11021 11022 11023 11023 11024 11024 11025 11025 11025 11025 11025 11025 11025 11024 11024 11023 11023 11023 11022 11022 11022 11022 11022 11022 11021 11021 11020 11020 11019 11019 11018 11017 11016 11015 11014 11013 11012 11011 11010 11009 11008 11007 11006 11004 11003 11001 11000 10999 10997 10996 10995 10994 10993 10992 10991 10990 10989 10988 10987 10986
10987 10989 10992 10996 11001 11003 11005 11006 11007 11007 11007 11007 11006 11006 11007 11008 11009 11011 11012 11013 11014 11015 11016 11017 11018 11018 11019 11020 11021 11021 11022 11023 11023 11023 11023 11023 11023 11023 11023 11022 11022 11021 11021 11021 11021 11021 11021 11021 11021 11021 11020 11020 11019 11018 11018 11017 11016 11015 11014 11013 11012 11011 11010 11009 11008 11007 11006 11005 11003 11002 11001 11000 10998 10997 10996 10994 10993 10992 10991 10990 10990 10989 10987 10986 10985
10982 10985 10989 10993 10997 11000 11002 11003 11005 11006 11006 11006 11005 11005 11005 11005 11006 11007 11009 11010 11011 11012 11013 11014 11015 11016 11016 11017 11017 11018 11019 11021 11021 11021 11021 11022 11022 11021 11021 11021 11020 11020 11020 11020 11020 11020 11020 11020 11020 11020 11019 11019 11018 11017 11017 11016 11015 11014 11013 11013 11011 11010 11009 11008 11007 11006 11005 11004 11003 11001 11000 10999 10998 10997 10995 10994 10993 10992 10991 10990 10989 10988 10987 10986 10985
10977 10981 10984 10987 10992 10997 11000 11002 11003 11005 11006 11006 11005 11005 11004 11004 11004 11004 11005 11007 11008 11009 11010 11011 11012 11013 11013 11014 11014 11015 11017 11018 11018 11019 11019 11020 11020 11020 11019 11019 11019 11018 11018 11019 11019 11019 11019 11019 11019 11019 11019 11018 11018 11017 11016 11015 11014 11013 11013 11012 11011 11010 11009 11008 11007 11006 11005 11003 11002 11001 11000 10998 10997 10996 10995 10994 10993 10992 10991 10990 10989 10988 10986 10985 10984
10972 10975 10976 10978 10984 10992 10997 11000 11001 11003 11005 11006 11006 11005 11004 11003 11002 11002 11003 11004 11005 11006 11007 11008 11009 11010 11011 11011 11012 11013 11014 11014 11015 11016 11016 11017 11017 11018 11017 11017 11017 11017 11017 11017 11017 11017 11018 11018 11018 11018 11018 11018 11017 11017 11016 11015 11014 11013 11012 11012 11011 11010 11009 11008 11007 11006 11005 11003 11002 11001 10999 10998 10997 10996 10995 10995 10994 10993 10991 10990 10989 10988 10987 10985 10984
10966 10968 10969 10971 10976 10982 10988 10994 10998 11001 11004 11005 11005 11005 11004 11003 11002 11002 11002 11003 11004 11004 11004 11006 11007 11008 11009 11009 11010 11010 11011 11012 11012 11013 11014 11015 11015 11015 11015 11015 11015 11015 11015 11016 11016 11016 11017 11017 11017 11018 11018 11018 11018 11017 11016 11015 11014 11014 11013 11012 11011 11010 11009 11008 11007 11006 11005 11003 11002 11001 11000 10999 10998 10997 10996 10995 10994 10993 10992 10991 10989 10988 10987 10986 10985
10961 10963 10964 10967 10970 10973 10978 10986 10992 10998 11002 11004 11005 11005 11005 11004 11003 11003 11003 11003 11003 11003 11004 11005 11006 11006 11007 11007 11008 11008 11009 11009 11010 11011 11011 11012 11013 11013 11013 11013 11013 11014 11014 11015 11015 11016 11016 11016 11017 11017 11017 11018 11017 11017 11016 11016 11015 11014 11013 11013 11012 11011 11010 11008 11007 11006 11005 11004 11003 11001 11000 10999 10998 10998 10996 10995 10995 10993 10992 10991 10990 10989 10988 10986 10985
10956 10959 10961 10963 10965 10967 10970 10976 10983 10991 10998 11002 11004 11005 11005 11005 11004 11004 11004 11004 11003 11003 11004 11005 11005 11006 11006 11006 11007 11007 11007 11007 11008 11008 11009 11009 11010 11010 11011 11011 11012 11012 11013 11013 11014 11014 11015 11015 11016 11016 11016 11017 11017 11017 11016 11015 11015 11014 11014 11013 11012 11011 11010 11009 11008 11006 11005 11004 11003 11002 11001 11000 10999 10998 10997 10996 10995 10994 10993 10992 10991 10990 10988 10987 10986
10950 10953 10956 10958 10960 10963 10966 10969 10975 10984 10992 10996 10998 10999 10999 10998 10997 10997 10998 10999 10999 11001 11004 11006 11006 11006 11006 11006 11005 11005 11006 11006 11006 11006 11006 11006 11007 11007 11008 11009 11009 11010 11011 11011 11012 11012 11013 11013 11014 11015 11015 11016 11016 11016 11015 11015 11014 11014 11013 11012 11012 11011 11010 11009 11008 11007 11005 11004 11003 11002 11001 11000 10999 10999 10998 10997 10996 10995 10994 10993 10992 10990 10989 10988 10987
10943 10947 10950 10953 10956 10959 10963 10966 10971 10977 10985 10990 10992 10991 10989 10987 10984 10984 10984 10983 10984 10988 10993 10996 10998 11000 11003 11005 11005 11005 11005 11005 11003 11003 11003 11003 11003 11004 11005 11005 11006 11007 11008 11009 11010 11010 11010 11011 11012 11012 11013 11014 11014 11014 11014 11014 11013 11013 11012 11011 11011 11011 11010 11009 11008 11006 11005 11004 11003 11002 11001 11000 10999 10999 10998 10997 10996 10995 10994 10993 10992 10991 10990 10989 10988
10935 10939 10943 10946 10950 10953 10958 10962 10967 10972 10977 10982 10983 10982 10982 10982 10981 10981 10980 10978 10977 10979 10982 10984 10986 10989 10992 10996 10999 11002 11003 11003 11002 11001 11000 11000 11000 11000 11001 11002 11003 11004 11005 11006 11006 11007 11008 11008 11009 11010 11011 11011 11011 11012 11012 11012 11012 11011 11011 11010 11010 11010 11009 11008 11007 11006 11005 11004 11003 11001 11001 11000 10999 10999 10998 10997 10996 10995 10994 10993 10992 10991 10990 10989 10988
10927 10932 10936 10939 10943 10947 10951 10954 10958 10964 10969 10972 10973 10972 10975 10979 10981 10981 10980 10979 10978 10980 10982 10982 10984 10985 10987 10987 10988 10990 10992 10995 10998 10999 10998 10996 10996 10996 10997 10998 10999 11001 11002 11002 11003 11004 11005 11006 11006 11007 11008 11008 11008 11008 11009 11009 11009 11009 11009 11009 11009 11008 11008 11007 11006 11005 11004 11003 11002 11001 11000 10999 10999 10998 10997 10997 10996 10995 10994 10993 10992 10991 10990 10989 10988
10918 10923 10928 10932 10935 10939 10943 10946 10949 10955 10960 10963 10965 10967 10969 10973 10975 10974 10973 10972 10973 10976 10978 10979 10980 10982 10984 10985 10985 10983 10981 10982 10985 10988 10990 10991 10991 10992 10993 10994 10995 10997 10998 10999 11000 11001 11002 11003 11003 11004 11005 11005 11005 11005 11006 11006 11006 11006 11007 11007 11007 11007 11006 11006 11006 11005 11004 11003 11002 11001 11000 10999 10998 10997 10997 10996 10995 10994 10994 10993 10992 10991 10990 10989 10988
10909 10914 10919 10923 10927 10931 10935 10938 10942 10946 10950 10954 10958 10961 10962 10963 10964 10963 10964 10964 10966 10970 10972 10974 10975 10975 10978 10980 10981 10981 10980 10979 10978 10979 10982 10984 10986 10987 10988 10989 10991 10993 10994 10995 10997 10997 10998 10999 11000 11000 11001 11002 11002 11002 11002 11003 11003 11004 11005 11006 11006 11005 11005 11005 11004 11004 11003 11002 11001 11000 10999 10998 10997 10997 10996 10995 10995 10994 10993 10993 10992 10991 10990 10989 10988
10900 10905 10909 10914 10918 10922 10926 10930 10934 10938 10942 10946 10949 10951 10953 10954 10954 10955 10957 10959 10961 10964 10966 10968 10969 10970 10972 10973 10974 10976 10977 10977 10977 10978 10979 10980 10981 10982 10982 10983 10985 10987 10989 10991 10993 10994 10995 10995 10996 10997 10998 10998 10999 10999 10998 10999 11000 11002 11003 11004 11004 11004 11003 11003 11003 11002 11002 11001 11000 10999 10998 10997 10996 10996 10995 10994 10994 10993 10993 10992 10992 10991 10990 10989 10988
10891 10896 10900 10904 10908 10913 10917 10921 10926 10930 10934 10938 10941 10942 10944 10946 10947 10949 10951 10953 10955 10957 10959 10961 10963 10965 10967 10968 10968 10969 10970 10971 10973 10975 10976 10978 10978 10978 10977 10976 10976 10979 10982 10985 10988 10990 10991 10992 10993 10993 10994 10995 10995 10995 10995 10996 10999 11001 11002 11003 11002 11002 11001 11001 11001 11000 11000 10999 10998 10998 10997 10996 10995 10994 10994 10993 10992 10992 10991 10991 10990 10990 10989 10988 10987
10881 10886 10890 10895 10899 10903 10908 10912 10916 10921 10925 10930 10933 10936 10937 10939 10940 10942 10943 10945 10947 10950 10953 10956 10958 10959 10961 10962 10963 10963 10964 10965 10967 10969 10971 10974 10976 10975 10974 10971 10969 10969 10972 10975 10981 10985 10987 10988 10989 10989 10990 10990 10990 10990 10991 10993 10996 10998 10999 11000 11000 11000 10999 10999 10999 10998 10997 10997 10996 10996 10995 10994 10994 10993 10992 10991 10991 10990 10990 10989 10989 10988 10988 10987 10986
10870 10875 10880 10885 10890 10894 10898 10902 10907 10912 10916 10921 10925 10928 10930 10932 10934 10936 10936 10936 10939 10944 10947 10951 10953 10954 10955 10957 10958 10958 10959 10960 10963 10965 10967 10969 10971 10972 10971 10969 10967 10965 10965 10967 10972 10978 10983 10986 10987 10987 10986 10985 10985 10986 10987 10989 10991 10993 10995 10996 10996 10997 10997 10996 10996 10995 10995 10995 10994 10993 10993 10992 10992 10991 10990 10990 10989 10989 10988 10988 10987 10986 10986 10986 10984
10859 10865 10869 10874 10879 10884 10888 10893 10897 10901 10907 10912 10916 10920 10923 10925 10927 10929 10930 10930 10933 10937 10940 10944 10946 10948 10950 10952 10952 10952 10953 10956 10958 10961 10962 10963 10965 10966 10967 10967 10966 10965 10962 10961 10963 10968 10975 10980 10982 10983 10983 10982 10981 10982 10984 10985 10986 10988 10990 10992 10993 10993 10994 10994 10993 10993 10992 10992 10992 10991 10990 10990 10990 10989 10989 10989 10988 10987 10987 10986 10985 10985 10984 10984 10983
10848 10854 10858 10863 10868 10874 10879 10883 10887 10891 10896 10902 10906 10910 10914 10917 10920 10922 10923 10925 10927 10930 10933 10937 10939 10941 10943 10945 10946 10947 10949 10951 10953 10956 10958 10959 10960 10962 10964 10964 10964 10963 10960 10957 10955 10958 10964 10969 10972 10974 10976 10977 10977 10978 10980 10980 10982 10983 10985 10987 10988 10989 10990 10990 10990 10990 10990 10990 10989 10989 10988 10988 10988 10988 10988 10987 10986 10985 10985 10984 10983 10982 10982 10981 10980
10836 10841 10847 10852 10858 10863 10868 10873 10877 10882 10886 10891 10896 10901 10905 10908 10912 10915 10917 10918 10920 10922 10925 10928 10931 10934 10936 10937 10939 10942 10945 10946 10947 10949 10952 10954 10956 10957 10959 10961 10961 10960 10958 10955 10952 10951 10953 10958 10963 10966 10969 10972 10974 10975 10976 10977 10978 10979 10980 10982 10983 10985 10986 10987 10987 10987 10987 10987 10986 10986 10986 10986 10986 10986 10986 10985 10983 10983 10982 10982 10980 10980 10979 10978 10977
10824 10829 10835 10841 10847 10853 10858 10862 10867 10871 10876 10880 10885 10890 10894 10898 10902 10906 10909 10911 10912 10913 10916 10919 10922 10926 10929 10930 10933 10937 10940 10940 10941 10943 10946 10949 10951 10953 10954 10956 10956 10956 10955 10955 10953 10951 10952 10955 10959 10961 10964 10968 10971 10973 10974 10974 10975 10976 10977 10978 10979 10980 10981 10982 10983 10983 10983 10983 10983 10983 10983 10983 10983 10983 10983 10982 10981 10980 10979 10979 10977 10976 10975 10974 10973
10812 10816 10823 10830 10836 10842 10846 10851 10856 10861 10865 10870 10874 10879 10883 10887 10892 10896 10900 10903 10904 10905 10909 10912 10914 10918 10922 10925 10927 10931 10933 10934 10935 10938 10940 10943 10945 10947 10948 10950 10951 10951 10951 10951 10951 10949 10948 10950 10953 10955 10960 10966 10970 10973 10974 10973 10972 10973 10974 10974 10975 10976 10977 10978 10979 10979 10980 10980 10980 10980 10979 10979 10979 10979 10979 10978 10978 10977 10977 10975 10974 10973 10972 10971 10969
10799 10804 10810 10817 10823 10829 10834 10839 10844 10849 10854 10859 10864 10868 10872 10876 10881 10885 10890 10893 10895 10897 10900 10904 10907 10910 10914 10918 10921 10923 10926 10927 10928 10931 10934 10937 10939 10941 10943 10945 10946 10946 10946 10947 10946 10944 10943 10942 10943 10947 10954 10962 10969 10973 10973 10972 10970 10969 10970 10970 10971 10972 10973 10974 10975 10976 10976 10976 10976 10976 10976 10976 10975 10975 10975 10974 10974 10974 10973 10972 10971 10969 10968 10967 10966
10786 10791 10798 10804 10810 10816 10821 10827 10832 10838 10843 10847 10852 10857 10862 10865 10870 10874 10878 10881 10885 10888 10891 10894 10898 10902 10906 10910 10913 10915 10918 10919 10921 10924 10928 10931 10933 10935 10938 10939 10941 10942 10942 10942 10942 10942 10941 10939 10937 10940 10948 10959 10967 10970 10970 10968 10967 10966 10966 10966 10967 10968 10969 10970 10971 10972 10972 10972 10972 10972 10972 10972 10971 10971 10970 10969 10969 10969 10969 10969 10968 10966 10965 10964 10963
10772 10778 10784 10790 10797 10803 10808 10814 10820 10826 10831 10836 10841 10846 10851 10855 10859 10864 10867 10870 10874 10878 10880 10883 10888 10892 10897 10901 10904 10907 10910 10912 10914 10917 10920 10924 10927 10930 10931 10933 10935 10936 10937 10937 10938 10939 10940 10938 10936 10938 10945 10954 10960 10962 10962 10961 10961 10961 10962 10962 10963 10964 10965 10966 10967 10967 10967 10968 10968 10968 10968 10967 10967 10966 10965 10965 10965 10965 10964 10964 10963 10962 10961 10960 10959
10757 10763 10770 10776 10783 10789 10795 10801 10808 10814 10819 10824 10829 10834 10840 10844 10849 10853 10857 10860 10863 10867 10870 10873 10877 10882 10887 10892 10895 10898 10901 10905 10907 10909 10912 10916 10920 10923 10925 10926 10928 10929 10931 10932 10933 10935 10936 10936 10935 10937 10939 10943 10948 10951 10953 10954 10955 10955 10956 10957 10958 10959 10960 10962 10962 10962 10963 10963 10963 10963 10963 10963 10963 10962 10961 10960 10960 10960 10960 10959 10959 10958 10958 10957 10956
10741 10748 10755 10763 10770 10777 10782 10788 10795 10801 10806 10811 10817 10823 10828 10833 10837 10842 10846 10850 10853 10857 10860 10863 10866 10870 10876 10881 10886 10889 10892 10895 10898 10901 10904 10907 10911 10915 10918 10920 10921 10923 10925 10926 10927 10928 10930 10930 10931 10933 10934 10935 10937 10941 10944 10947 10948 10949 10950 10952 10954 10955 10955 10956 10957 10958 10958 10958 10958 10958 10958 10959 10959 10958 10957 10956 10956 10955 10955 10954 10953 10953 10953 10953 10952
10725 10732 10740 10749 10757 10764 10770 10775 10782 10788 10793 10799 10804 10810 10816 10821 10826 10831 10835 10840 10843 10847 10850 10853 10856 10859 10864 10871 10876 10880 10882 10885 10888 10892 10895 10898 10901 10905 10909 10911 10913 10916 10918 10919 10919 10920 10922 10924 10925 10928 10929 10929 10930 10933 10935 10938 10940 10942 10945 10947 10948 10949 10950 10951 10952 10953 10953 10953 10953 10953 10954 10954 10955 10954 10954 10952 10951 10950 10949 10948 10948 10948 10947 10947 10947
10709 10716 10725 10734 10742 10749 10755 10762 10768 10775 10781 10786 10791 10797 10803 10809 10814 10819 10824 10829 10833 10836 10840 10843 10846 10849 10854 10861 10867 10870 10872 10875 10879 10882 10886 10890 10893 10896 10899 10902 10905 10908 10909 10910 10911 10913 10915 10917 10919 10922 10924 10925 10925 10926 10928 10930 10932 10935 10938 10940 10942 10943 10945 10946 10947 10947 10948 10948 10949 10949 10950 10950 10949 10949 10949 10948 10946 10945 10944 10943 10943 10942 10941 10941 10941
10693 10701 10709 10717 10725 10733 10740 10747 10754 10760 10766 10772 10778 10785 10791 10797 10802 10807 10812 10817 10822 10826 10830 10833 10836 10839 10844 10852 10857 10859 10862 10865 10869 10873 10876 10880 10884 10887 10889 10892 10895 10898 10900 10902 10904 10906 10908 10911 10913 10915 10917 10919 10919 10920 10921 10922 10924 10927 10930 10933 10935 10937 10939 10940 10941 10941 10942 10942 10944 10945 10946 10946 10945 10944 10944 10943 10941 10939 10939 10939 10937 10936 10936 10936 10935
10675 10684 10692 10700 10708 10717 10725 10733 10739 10745 10751 10758 10764 10771 10777 10783 10789 10794 10799 10805 10810 10814 10819 10823 10826 10829 10835 10842 10846 10848 10851 10855 10859 10863 10866 10870 10874 10877 10880 10883 10886 10888 10890 10893 10896 10898 10901 10903 10905 10907 10909 10911 10912 10913 10914 10915 10917 10920 10923 10926 10930 10931 10932 10933 10934 10934 10934 10936 10939 10941 10942 10942 10941 10939 10939 10937 10936 10934 10934 10934 10932 10931 10931 10931 10930
10657 10665 10674 10683 10691 10700 10708 10716 10723 10729 10736 10743 10750 10756 10763 10769 10775 10781 10787 10792 10797 10802 10807 10812 10815 10819 10825 10831 10836 10838 10840 10845 10849 10853 10857 10861 10863 10865 10868 10872 10875 10878 10881 10885 10888 10891 10893 10895 10896 10898 10900 10901 10903 10905 10906 10908 10911 10914 10918 10923 10925 10926 10925 10925 10925 10925 10926 10928 10932 10936 10937 10937 10935 10934 10933 10932 10931 10929 10929 10928 10927 10925 10924 10923 10924
10639 10647 10655 10665 10674 10682 10690 10698 10705 10713 10720 10728 10735 10742 10749 10755 10761 10767 10773 10779 10785 10790 10795 10800 10805 10808 10813 10819 10824 10827 10830 10834 10838 10842 10846 10849 10851 10853 10856 10860 10863 10867 10871 10876 10879 10882 10885 10885 10886 10887 10889 10891 10893 10895 10898 10902 10905 10909 10915 10920 10921 10920 10919 10918 10917 10917 10917 10921 10927 10931 10932 10929 10927 10927 10926 10925 10925 10923 10923 10922 10921 10919 10917 10916 10916
10621 10629 10638 10646 10655 10664 10672 10680 10688 10696 10704 10712 10720 10727 10734 10741 10747 10753 10759 10765 10771 10777 10782 10788 10793 10797 10801 10806 10811 10816 10820 10824 10828 10831 10835 10837 10840 10843 10845 10848 10852 10856 10861 10866 10870 10873 10875 10876 10877 10878 10880 10882 10884 10887 10891 10895 10897 10900 10904 10909 10911 10912 10911 10910 10909 10909 10911 10915 10921 10924 10923 10920 10919 10920 10919 10918 10917 10916 10916 10915 10914 10912 10911 10910 10909
10601 10611 10620 10628 10635 10644 10653 10663 10671 10679 10687 10696 10704 10712 10719 10726 10732 10738 10745 10751 10758 10764 10770 10775 10780 10785 10789 10793 10797 10803 10808 10813 10817 10820 10824 10826 10829 10832 10834 10837 10841 10845 10850 10855 10860 10863 10865 10867 10868 10870 10871 10872 10875 10878 10882 10885 10887 10889 10892 10896 10899 10901 10902 10902 10902 10903 10905 10908 10910 10912 10911 10911 10913 10913 10912 10911 10910 10909 10909 10908 10907 10906 10904 10903 10902
10582 10591 10601 10609 10616 10624 10634 10643 10652 10661 10670 10679 10688 10696 10704 10710 10717 10724 10730 10737 10744 10750 10756 10762 10767 10772 10777 10781 10785 10790 10795 10800 10805 10809 10813 10815 10818 10821 10823 10827 10831 10834 10838 10844 10848 10851 10854 10857 10858 10860 10861 10863 10865 10868 10871 10874 10877 10879 10882 10885 10888 10890 10892 10893 10893 10894 10896 10897 10899 10900 10902 10904 10904 10904 10904 10903 10902 10902 10902 10901 10900 10900 10899 10897 10895
10565 10573 10582 10590 10598 10606 10614 10623 10633 10643 10652 10662 10671 10680 10688 10695 10702 10709 10716 10722 10729 10736 10742 10748 10754 10759 10764 10769 10772 10776 10782 10787 10792 10797 10801 10804 10807 10809 10813 10816 10820 10823 10828 10832 10836 10840 10843 10846 10848 10849 10851 10853 10856 10858 10861 10863 10866 10869 10871 10874 10877 10880 10881 10882 10883 10884 10885 10886 10888 10890 10893 10894 10895 10895 10895 10895 10894 10894 10894 10894 10893 10893 10892 10890 10888
10548 10556 10564 10572 10581 10589 10597 10605 10614 10625 10635 10644 10654 10663 10671 10679 10687 10695 10701 10708 10715 10721 10727 10734 10740 10746 10751 10756 10760 10764 10768 10774 10779 10784 10788 10792 10795 10798 10802 10806 10810 10813 10817 10821 10824 10828 10830 10833 10836 10839 10841 10843 10846 10848 10850 10853 10855 10858 10860 10863 10866 10869 10870 10871 10872 10874 10875 10876 10878 10880 10882 10884 10885 10885 10885 10885 10885 10885 10885 10885 10884 10885 10884 10882 10880
10532 10539 10547 10555 10563 10572 10580 10588 10596 10606 10616 10626 10636 10645 10654 10663 10671 10679 10687 10694 10700 10707 10713 10720 10726 10732 10737 10743 10748 10752 10756 10761 10766 10771 10775 10779 10783 10787 10790 10794 10798 10802 10806 10809 10813 10815 10818 10822 10825 10828 10831 10833 10835 10837 10839 10842 10844 10846 10849 10851 10854 10857 10859 10860 10862 10864 10865 10866 10867 10869 10870 10873 10875 10875 10875 10875 10875 10875 10875 10875 10875 10875 10875 10874 10872
10516 10523 10530 10538 10546 10554 10563 10571 10580 10588 10598 10608 10618 10627 10637 10646 10655 10663 10671 10679 10686 10692 10698 10705 10712 10717 10723 10729 10735 10739 10743 10748 10753 10758 10763 10767 10771 10774 10778 10782 10786 10790 10793 10797 10800 10803 10806 10810 10814 10818 10820 10822 10824 10826 10828 10830 10833 10835 10837 10839 10842 10845 10848 10850 10851 10853 10853 10855 10857 10858 10859 10862 10864 10864 10864 10865 10865 10865 10865 10865 10865 10865 10865 10865 10863
10501 10508 10514 10522 10529 10538 10547 10555 10563 10572 10580 10590 10600 10610 10619 10628 10638 10647 10656 10663 10670 10677 10684 10691 10697 10702 10708 10715 10721 10726 10731 10735 10740 10745 10750 10754 10758 10762 10766 10770 10773 10777 10780 10784 10788 10791 10794 10798 10802 10806 10809 10811 10813 10816 10818 10820 10822 10824 10826 10828 10831 10833 10836 10839 10841 10842 10843 10844 10846 10847 10849 10851 10852 10853 10853 10853 10854 10854 10855 10854 10854 10854 10855 10855 10854
10488 10494 10500 10507 10514 10523 10531 10539 10547 10556 10564 10573 10583 10593 10602 10611 10621 10630 10639 10647 10654 10661 10668 10676 10682 10688 10694 10700 10706 10712 10717 10722 10727 10731 10736 10741 10746 10750 10753 10757 10760 10764 10768 10772 10775 10778 10781 10785 10789 10793 10797 10800 10803 10806 10808 10810 10812 10814 10816 10818 10820 10822 10825 10827 10829 10831 10832 10834 10836 10837 10838 10840 10840 10841 10842 10842 10842 10843 10844 10843 10842 10843 10844 10844 10843